Time,TemperatureF,DewpointF,PressureIn,WindDirection,WindDirectionDegrees,WindSpeedMPH,WindSpeedGustMPH,Humidity,HourlyPrecipIn,Conditions,Clouds,dailyrainin,SolarRadiationWatts/m^2,SoftwareType,DateUTC
2013-01-11 00:12:00,7.0,2.0,-100.00,SSE,155,1.0,3.0,80,-99.99,,,0.28,1.000000,,2013-01-11 08:12:00,
2013-01-11 01:12:00,10.0,5.0,-100.00,SSE,160,2.0,7.0,80,-99.99,,,0.28,1.000000,,2013-01-11 09:12:00,
2013-01-11 02:22:00,8.0,3.0,-100.00,SW,226,1.0,3.0,81,-99.99,,,0.28,1.000000,,2013-01-11 10:22:00,
2013-01-11 03:12:00,12.0,7.0,-100.00,SW,228,2.0,5.0,79,-99.99,,,0.28,1.000000,,2013-01-11 11:12:00,
2013-01-11 03:22:00,12.0,7.0,-100.00,SW,228,2.0,5.0,79,-99.99,,,0.28,1.000000,,2013-01-11 11:22:00,
2013-01-11 03:32:00,12.0,7.0,-100.00,SW,228,2.0,5.0,79,-99.99,,,0.28,1.000000,,2013-01-11 11:32:00,
2013-01-11 04:22:00,12.0,7.0,-100.00,South,186,1.0,6.0,80,0.00,,,0.28,1.000000,,2013-01-11 12:22:00,
2013-01-11 04:51:00,13.0,6.0,-100.00,NNW,329,1.0,4.0,72,-99.99,,,-99.99,1.000000,,2013-01-11 12:51:00,
2013-01-11 05:12:00,13.0,6.0,-100.00,NNW,329,1.0,4.0,72,-99.99,,,-99.99,1.000000,,2013-01-11 13:12:00,
2013-01-11 05:22:00,13.0,6.0,-100.00,NNW,329,1.0,4.0,72,-99.99,,,-99.99,1.000000,,2013-01-11 13:22:00,
2013-01-11 05:32:00,13.0,6.0,-100.00,NNW,329,1.0,4.0,72,-99.99,,,-99.99,1.000000,,2013-01-11 13:32:00,
2013-01-11 05:42:00,13.0,6.0,-100.00,NNW,329,1.0,4.0,72,-99.99,,,-99.99,1.000000,,2013-01-11 13:42:00,
2013-01-11 05:51:00,12.0,4.0,-100.00,South,181,1.0,5.0,70,0.00,,,0.28,1.000000,,2013-01-11 13:51:00,
2013-01-11 06:22:00,12.0,4.0,-100.00,South,181,1.0,5.0,70,0.00,,,0.28,1.000000,,2013-01-11 14:22:00,
2013-01-11 06:33:00,12.0,4.0,-100.00,South,181,1.0,5.0,70,0.00,,,0.28,1.000000,,2013-01-11 14:33:00,
2013-01-11 06:42:00,12.0,4.0,-100.00,South,181,1.0,5.0,70,0.00,,,0.28,1.000000,,2013-01-11 14:42:00,
2013-01-11 07:12:00,5.0,0.0,-100.00,SSE,157,1.0,3.0,80,0.00,,,0.28,1.000000,,2013-01-11 15:12:00,
2013-01-11 08:12:00,2.0,-4.0,-100.00,SSW,207,1.0,4.0,76,-99.99,,,0.28,4.000000,,2013-01-11 16:12:00,
2013-01-11 09:12:00,11.0,5.0,-100.00,South,178,0.0,2.0,76,-99.99,,,0.28,54.000000,,2013-01-11 17:12:00,
2013-01-11 09:22:00,11.0,5.0,-100.00,South,178,0.0,2.0,76,-99.99,,,0.28,54.000000,,2013-01-11 17:22:00,
2013-01-11 09:33:00,11.0,5.0,-100.00,South,178,0.0,2.0,76,-99.99,,,0.28,54.000000,,2013-01-11 17:33:00,
2013-01-11 09:51:00,22.0,7.0,-100.00,South,184,2.0,3.0,52,-99.99,,,0.28,104.000000,,2013-01-11 17:51:00,
2013-01-11 10:12:00,22.0,7.0,-100.00,South,184,2.0,3.0,52,-99.99,,,0.28,104.000000,,2013-01-11 18:12:00,
2013-01-11 10:23:00,22.0,7.0,-100.00,South,184,2.0,3.0,52,-99.99,,,0.28,104.000000,,2013-01-11 18:23:00,
2013-01-11 10:32:00,22.0,7.0,-100.00,South,184,2.0,3.0,52,-99.99,,,0.28,104.000000,,2013-01-11 18:32:00,
2013-01-11 10:42:00,22.0,7.0,-100.00,South,184,2.0,3.0,52,-99.99,,,0.28,104.000000,,2013-01-11 18:42:00,
2013-01-11 10:51:00,25.0,2.0,-100.00,WSW,241,2.0,5.0,37,0.00,,,0.28,148.000000,,2013-01-11 18:51:00,
2013-01-11 11:12:00,25.0,2.0,-100.00,WSW,241,2.0,5.0,37,0.00,,,0.28,148.000000,,2013-01-11 19:12:00,
2013-01-11 11:22:00,25.0,2.0,-100.00,WSW,241,2.0,5.0,37,0.00,,,0.28,148.000000,,2013-01-11 19:22:00,
2013-01-11 11:32:00,25.0,2.0,-100.00,WSW,241,2.0,5.0,37,0.00,,,0.28,148.000000,,2013-01-11 19:32:00,
2013-01-11 11:42:00,25.0,2.0,-100.00,WSW,241,2.0,5.0,37,0.00,,,0.28,148.000000,,2013-01-11 19:42:00,
2013-01-11 11:51:00,25.0,4.0,-100.00,WNW,297,3.0,9.0,39,0.00,,,0.25,169.000000,,2013-01-11 19:51:00,
2013-01-11 12:12:00,25.0,4.0,-100.00,WNW,297,3.0,9.0,39,0.00,,,0.25,169.000000,,2013-01-11 20:12:00,
2013-01-11 12:22:00,25.0,4.0,-100.00,WNW,297,3.0,9.0,39,0.00,,,0.25,169.000000,,2013-01-11 20:22:00,
2013-01-11 12:32:00,25.0,4.0,-100.00,WNW,297,3.0,9.0,39,0.00,,,0.25,169.000000,,2013-01-11 20:32:00,
2013-01-11 12:43:00,25.0,4.0,-100.00,WNW,297,3.0,9.0,39,0.00,,,0.25,169.000000,,2013-01-11 20:43:00,
2013-01-11 12:51:00,25.0,5.0,-100.00,North,4,5.0,9.0,41,0.00,,,0.12,184.000000,,2013-01-11 20:51:00,
2013-01-11 13:12:00,25.0,5.0,-100.00,North,4,5.0,9.0,41,0.00,,,0.12,184.000000,,2013-01-11 21:12:00,
2013-01-11 13:23:00,25.0,5.0,-100.00,North,4,5.0,9.0,41,0.00,,,0.12,184.000000,,2013-01-11 21:23:00,
2013-01-11 13:32:00,25.0,5.0,-100.00,North,4,5.0,9.0,41,0.00,,,0.12,184.000000,,2013-01-11 21:32:00,
2013-01-11 13:42:00,25.0,5.0,-100.00,North,4,5.0,9.0,41,0.00,,,0.12,184.000000,,2013-01-11 21:42:00,
2013-01-11 13:51:00,30.0,4.0,-100.00,North,354,4.0,12.0,33,0.03,,,0.05,318.000000,,2013-01-11 21:51:00,
2013-01-11 14:12:00,30.0,4.0,-100.00,North,354,4.0,12.0,33,0.03,,,0.05,318.000000,,2013-01-11 22:12:00,
2013-01-11 14:22:00,30.0,4.0,-100.00,North,354,4.0,12.0,33,0.03,,,0.05,318.000000,,2013-01-11 22:22:00,
2013-01-11 14:33:00,30.0,4.0,-100.00,North,354,4.0,12.0,33,0.03,,,0.05,318.000000,,2013-01-11 22:33:00,
2013-01-11 14:42:00,30.0,4.0,-100.00,North,354,4.0,12.0,33,0.03,,,0.05,318.000000,,2013-01-11 22:42:00,
2013-01-11 14:51:00,22.0,3.0,-100.00,West,280,2.0,12.0,44,0.00,,,0.03,189.000000,,2013-01-11 22:51:00,
2013-01-11 15:12:00,22.0,3.0,-100.00,West,280,2.0,12.0,44,0.00,,,0.03,189.000000,,2013-01-11 23:12:00,
2013-01-11 15:22:00,22.0,3.0,-100.00,West,280,2.0,12.0,44,0.00,,,0.03,189.000000,,2013-01-11 23:22:00,
2013-01-11 15:32:00,22.0,3.0,-100.00,West,280,2.0,12.0,44,0.00,,,0.03,189.000000,,2013-01-11 23:32:00,
2013-01-11 15:42:00,22.0,3.0,-100.00,West,280,2.0,12.0,44,0.00,,,0.03,189.000000,,2013-01-11 23:42:00,
2013-01-11 15:51:00,22.0,2.0,-100.00,WNW,300,1.0,8.0,42,0.00,,,0.03,130.000000,,2013-01-11 23:51:00,
2013-01-11 16:12:00,22.0,2.0,-100.00,WNW,300,1.0,8.0,42,0.00,,,0.03,130.000000,,2013-01-12 00:12:00,
2013-01-11 16:22:00,22.0,2.0,-100.00,WNW,300,1.0,8.0,42,0.00,,,0.03,130.000000,,2013-01-12 00:22:00,
2013-01-11 16:32:00,22.0,2.0,-100.00,WNW,300,1.0,8.0,42,0.00,,,0.03,130.000000,,2013-01-12 00:32:00,
2013-01-11 16:42:00,22.0,2.0,-100.00,WNW,300,1.0,8.0,42,0.00,,,0.03,130.000000,,2013-01-12 00:42:00,
2013-01-11 16:51:00,18.0,7.0,-100.00,WNW,295,2.0,4.0,61,0.00,,,0.03,22.000000,,2013-01-12 00:51:00,
2013-01-11 17:12:00,18.0,7.0,-100.00,WNW,295,2.0,4.0,61,0.00,,,0.03,22.000000,,2013-01-12 01:12:00,
2013-01-11 17:22:00,18.0,7.0,-100.00,WNW,295,2.0,4.0,61,0.00,,,0.03,22.000000,,2013-01-12 01:22:00,
2013-01-11 17:32:00,18.0,7.0,-100.00,WNW,295,2.0,4.0,61,0.00,,,0.03,22.000000,,2013-01-12 01:32:00,
2013-01-11 17:42:00,18.0,7.0,-100.00,WNW,295,2.0,4.0,61,0.00,,,0.03,22.000000,,2013-01-12 01:42:00,
2013-01-11 17:51:00,17.0,12.0,-100.00,ESE,120,2.0,3.0,80,0.00,,,0.03,2.000000,,2013-01-12 01:51:00,
2013-01-11 18:12:00,17.0,12.0,-100.00,ESE,120,2.0,3.0,80,0.00,,,0.03,2.000000,,2013-01-12 02:12:00,
2013-01-11 18:22:00,17.0,12.0,-100.00,ESE,120,2.0,3.0,80,0.00,,,0.03,2.000000,,2013-01-12 02:22:00,
2013-01-11 18:32:00,17.0,12.0,-100.00,ESE,120,2.0,3.0,80,0.00,,,0.03,2.000000,,2013-01-12 02:32:00,
2013-01-11 18:42:00,17.0,12.0,-100.00,ESE,120,2.0,3.0,80,0.00,,,0.03,2.000000,,2013-01-12 02:42:00,
2013-01-11 18:51:00,13.0,10.0,-100.00,NNE,19,2.0,4.0,86,0.00,,,0.03,1.000000,,2013-01-12 02:51:00,
2013-01-11 19:12:00,13.0,10.0,-100.00,NNE,19,2.0,4.0,86,0.00,,,0.03,1.000000,,2013-01-12 03:12:00,
2013-01-11 19:22:00,13.0,10.0,-100.00,NNE,19,2.0,4.0,86,0.00,,,0.03,1.000000,,2013-01-12 03:22:00,
2013-01-11 19:32:00,13.0,10.0,-100.00,NNE,19,2.0,4.0,86,0.00,,,0.03,1.000000,,2013-01-12 03:32:00,
2013-01-11 19:42:00,13.0,10.0,-100.00,NNE,19,2.0,4.0,86,0.00,,,0.03,1.000000,,2013-01-12 03:42:00,
2013-01-11 19:51:00,16.0,12.0,-100.00,NW,310,2.0,7.0,85,0.00,,,0.03,1.000000,,2013-01-12 03:51:00,
2013-01-11 20:12:00,16.0,12.0,-100.00,NW,310,2.0,7.0,85,0.00,,,0.03,1.000000,,2013-01-12 04:12:00,
2013-01-11 20:22:00,16.0,12.0,-100.00,NW,310,2.0,7.0,85,0.00,,,0.03,1.000000,,2013-01-12 04:22:00,
2013-01-11 20:32:00,16.0,12.0,-100.00,NW,310,2.0,7.0,85,0.00,,,0.03,1.000000,,2013-01-12 04:32:00,
2013-01-11 20:42:00,16.0,12.0,-100.00,NW,310,2.0,7.0,85,0.00,,,0.03,1.000000,,2013-01-12 04:42:00,
2013-01-11 20:51:00,15.0,11.0,-100.00,East,86,0.0,3.0,84,0.00,,,0.03,1.000000,,2013-01-12 04:51:00,
2013-01-11 21:12:00,15.0,11.0,-100.00,East,86,0.0,3.0,84,0.00,,,0.03,1.000000,,2013-01-12 05:12:00,
2013-01-11 21:22:00,15.0,11.0,-100.00,East,86,0.0,3.0,84,0.00,,,0.03,1.000000,,2013-01-12 05:22:00,
2013-01-11 21:32:00,15.0,11.0,-100.00,East,86,0.0,3.0,84,0.00,,,0.03,1.000000,,2013-01-12 05:32:00,
2013-01-11 21:42:00,15.0,11.0,-100.00,East,86,0.0,3.0,84,0.00,,,0.03,1.000000,,2013-01-12 05:42:00,